This demonstration page uses our WeatherBlox Daily Observations layout. Learn more.

40.92945, -100.16068

Hourly Observations for March 4, 2015

Temp ( °F °C ) Dew Point ( °F °C ) Humidity (%) Winds ( mph kmh ) Pressure ( in mb ) Visibility ( mi km ) Precip ( " mm )
12:15 am 00:15 Cloudy with Light Snow 18 -7.7 15 -9.5 87 87 N 6 9 30.3 1026 3 4.82802 N/A
12:35 am 00:35 Cloudy with Light Snow 18 -7.7 15 -9.3 88 88 N 8 13 30.3 1026 3 4.82802 N/A
12:55 am 00:55 Cloudy with Light Snow 18 -8 15 -9.7 88 88 N 10 17 30.3 1026 3 4.82802 N/A
1:15 am 01:15 Cloudy 17 -8.3 14 -10.2 86 86 N 8 13 30.3 1026 10 16.0934 N/A
1:35 am 01:35 Cloudy 16 -8.8 12 -11 84 84 N 7 11 30.3 1026 10 16.0934 N/A
1:55 am 01:55 Cloudy 15 -9.6 11 -11.6 86 86 NNW 6 9 30.33 1027 10 16.0934 N/A
2:15 am 02:15 Cloudy 14 -10 11 -11.6 88 88 NW 8 13 30.36 1028 10 16.0934 N/A
2:35 am 02:35 Cloudy 15 -9.5 12 -11.2 88 88 NW 7 11 30.33 1027 10 16.0934 N/A
2:55 am 02:55 Cloudy 15 -9.2 12 -11 87 87 NW 6 9 30.33 1027 10 16.0934 N/A
3:15 am 03:15 Cloudy 15 -9.2 12 -11 87 87 NW 5 7 30.33 1027 10 16.0934 N/A
3:35 am 03:35 Cloudy 16 -8.8 12 -10.9 85 85 NNW 7 11 30.33 1027 10 16.0934 N/A
3:55 am 03:55 Partly Cloudy 16 -9 12 -11.2 84 84 NNW 7 11 30.33 1027 10 16.0934 N/A
4:15 am 04:15 Clear 16 -9.1 11 -11.5 83 83 NNW 5 7 30.33 1027 10 16.0934 N/A
4:35 am 04:35 Partly Cloudy 15 -9.6 10 -12 83 83 NNW 5 7 30.39 1029 10 16.0934 N/A
4:55 am 04:55 Partly Cloudy 13 -10.5 10 -12.5 85 85 NW 3 6 30.39 1029 10 16.0934 N/A
5:15 am 05:15 Clear 13 -10.7 9 -12.7 85 85 Calm 30.39 1029 10 16.0934 N/A
5:35 am 05:35 Partly Cloudy 12 -11.1 8 -13.1 85 85 W 5 7 30.39 1029 10 16.0934 N/A
5:55 am 05:55 Clear 10 -12.1 7 -13.8 87 87 WNW 8 13 30.45 1031 10 16.0934 0 0
6:15 am 06:15 Clear 10 -12 7 -14 85 85 WNW 8 13 30.45 1031 10 16.0934 N/A
6:35 am 06:35 Partly Cloudy 10 -12.1 7 -14 86 86 WNW 8 13 30.45 1031 10 16.0934 N/A
6:55 am 06:55 Mostly Cloudy 11 -11.5 8 -13.5 85 85 WNW 8 13 30.42 1030 10 16.0934 N/A
7:15 am 07:15 Mostly Cloudy 11 -11.7 8 -13.6 86 86 WNW 7 11 30.48 1032 10 16.0934 N/A
7:35 am 07:35 Partly Cloudy 12 -11.3 8 -13.2 86 86 WNW 8 13 30.45 1031 10 16.0934 N/A
7:55 am 07:55 Partly Cloudy 13 -10.7 9 -12.9 84 84 WNW 10 17 30.45 1031 10 16.0934 N/A
8:15 am 08:15 Sunny 13 -10.8 8 -13.1 83 83 WNW 9 15 30.45 1031 10 16.0934 N/A
8:35 am 08:35 Sunny 12 -11.2 8 -13.6 83 83 NW 8 13 30.45 1031 10 16.0934 N/A
8:55 am 08:55 Partly Cloudy 12 -11.2 8 -13.5 83 83 WNW 9 15 30.48 1032 10 16.0934 N/A
9:15 am 09:15 Partly Cloudy 13 -10.6 9 -13 83 83 WNW 9 15 30.48 1032 10 16.0934 N/A
9:35 am 09:35 Partly Cloudy 16 -9 10 -12 79 79 WNW 12 19 30.48 1032 10 16.0934 N/A
9:55 am 09:55 Sunny 17 -8.2 11 -11.8 76 76 WNW 10 17 30.45 1031 10 16.0934 N/A
10:15 am 10:15 Sunny 19 -7.5 11 -11.6 73 73 WNW 12 19 30.48 1032 10 16.0934 N/A
10:35 am 10:35 Sunny 20 -6.8 12 -11.3 71 71 WNW 12 19 30.48 1032 10 16.0934 N/A
10:55 am 10:55 Sunny 21 -6 10 -12 63 63 NW 13 20 30.45 1031 10 16.0934 N/A
11:15 am 11:15 Sunny 22 -5.5 10 -12.2 60 60 NW 10 17 30.42 1030 10 16.0934 N/A
11:35 am 11:35 Sunny 23 -5.2 11 -11.8 60 60 NW 9 15 30.42 1030 10 16.0934 N/A
11:55 am 11:55 Sunny 24 -4.7 13 -10.8 63 63 W 8 13 30.42 1030 10 16.0934 N/A
12:15 pm 12:15 Sunny 25 -4 10 -12.4 52 52 WNW 12 19 30.42 1030 10 16.0934 N/A
12:35 pm 12:35 Sunny 26 -3.3 9 -12.7 49 49 NW 8 13 30.42 1030 10 16.0934 N/A
1:15 pm 13:15 Partly Cloudy 27 -2.6 9 -12.6 47 47 NNW 10 17 30.42 1030 10 16.0934 N/A
1:35 pm 13:35 Sunny 28 -2.4 8 -13.2 44 44 N 14 22 30.36 1028 10 16.0934 N/A
1:55 pm 13:55 Sunny 29 -1.9 9 -13 43 43 NNW 10 17 30.36 1028 10 16.0934 N/A
2:15 pm 14:15 Sunny 29 -1.7 8 -13.1 42 42 NW 10 17 30.36 1028 10 16.0934 N/A
2:35 pm 14:35 Partly Cloudy 29 -1.7 8 -13.1 42 42 NNW 13 20 30.36 1028 10 16.0934 N/A
2:55 pm 14:55 Partly Cloudy 31 -0.4 10 -12 42 42 NNW 15 24 30.3 1026 10 16.0934 N/A
3:15 pm 15:15 Partly Cloudy 30 -1.1 7 -13.8 38 38 NW 17 28 30.33 1027 10 16.0934 N/A
3:35 pm 15:35 Mostly Cloudy 30 -0.9 7 -13.9 37 37 NNW 18 30 30.33 1027 10 16.0934 N/A
3:55 pm 15:55 Partly Cloudy 32 -0.1 6 -14.5 33 33 NNW 17 28 30.3 1026 10 16.0934 N/A
4:15 pm 16:15 Mostly Cloudy 31 -0.3 6 -14.3 34 34 N 16 26 30.3 1026 10 16.0934 N/A
4:35 pm 16:35 Partly Cloudy 31 -0.8 5 -15 34 34 NW 18 30 30.33 1027 10 16.0934 N/A
4:55 pm 16:55 Partly Cloudy 30 -0.9 5 -15 34 34 NNW 15 24 30.33 1027 10 16.0934 N/A
5:15 pm 17:15 Partly Cloudy 30 -1 3 -15.9 32 32 NNW 14 22 30.33 1027 10 16.0934 N/A
5:35 pm 17:35 Partly Cloudy 29 -1.6 4 -15.8 33 33 N 12 19 30.33 1027 10 16.0934 N/A
5:55 pm 17:55 Sunny 29 -1.8 2 -16.5 32 32 N 13 20 30.36 1028 10 16.0934 N/A
6:15 pm 18:15 Sunny 27 -2.8 4 -15.4 38 38 N 9 15 30.36 1028 10 16.0934 N/A
6:35 pm 18:35 Clear 24 -4.7 6 -14.5 47 47 N 8 13 30.39 1029 10 16.0934 N/A
6:55 pm 18:55 Clear 20 -6.4 6 -14.6 53 53 N 7 11 30.45 1031 10 16.0934 N/A
7:15 pm 19:15 Clear 19 -7 5 -15 53 53 NNE 7 11 30.45 1031 10 16.0934 N/A
7:35 pm 19:35 Clear 19 -7.3 4 -15.5 52 52 NE 6 9 30.48 1032 10 16.0934 N/A
7:55 pm 19:55 Clear 17 -8.5 4 -15.8 56 56 NE 7 11 30.48 1032 10 16.0934 N/A
8:15 pm 20:15 Clear 16 -9.1 4 -15.8 59 59 ENE 6 9 30.5 1033 10 16.0934 N/A
8:35 pm 20:35 Clear 16 -9.1 3 -15.9 58 58 ENE 6 9 30.53 1034 10 16.0934 N/A
8:55 pm 20:55 Clear 14 -9.8 2 -16.6 58 58 ENE 5 7 30.53 1034 10 16.0934 N/A
9:15 pm 21:15 Clear 12 -11.3 3 -15.9 69 69 N 5 7 30.56 1035 10 16.0934 N/A
9:35 pm 21:35 Clear 10 -12.4 4 -15.8 76 76 Calm 30.56 1035 10 16.0934 N/A
9:55 pm 21:55 Clear 10 -12 4 -15.5 75 75 Calm 30.59 1036 10 16.0934 N/A
10:15 pm 22:15 Clear 8 -13.3 2 -16.4 78 78 N 5 7 30.59 1036 10 16.0934 N/A
10:35 pm 22:35 Clear 8 -13.2 2 -16.5 76 76 NE 5 7 30.59 1036 10 16.0934 N/A
10:55 pm 22:55 Clear 9 -12.9 3 -16 78 78 Calm 30.65 1038 10 16.0934 N/A
11:15 pm 23:15 Clear 10 -12.3 3 -16.1 74 74 Calm 30.62 1037 10 16.0934 N/A
11:35 pm 23:35 Clear 8 -13.3 2 -16.8 75 75 ESE 8 13 30.59 1036 10 16.0934 N/A
11:55 pm 23:55 Clear 11 -11.6 2 -16.8 66 66 E 5 7 30.62 1037 10 16.0934 N/A

Powered by AerisWeather